Home   Weather   Dera Ghazi Khan   Past weeks
Flag for Pakistan

Past Weather in Dera Ghazi Khan, Pakistan — Yesterday and Last 2 Weeks

Now
97 °F

Partly sunny.


Feels Like: 115 °F
Forecast: 100 / 86 °F
Wind: No wind

Location: Multan Airport

Current Time: Jul 17, 2019 at 3:46:41 pm

Latest Report: Jul 17, 2019 at 3:30 pm


Visibility: 3 mi

Pressure: 29.47 "Hg

Humidity: 56%

Dew Point: 79 °F

Location of Dera Ghazi KhanLocation

Past Weather in Dera Ghazi Khan — Graph

°F

Dera Ghazi Khan Temperature Yesterday

Maximum temperature yesterday: 99 °F (at 1:30 pm)
Minimum temperature yesterday: 84 °F (at 4:55 am)
Average temperature yesterday: 93 °F

High & Low Weather Summary for the Past Weeks

 TemperatureHumidityPressure
High108 °F (Jul 4, 1:30 pm)84% (Jul 15, 6:30 am)29.53 "Hg (Jul 15, 6:30 am)
Low84 °F (Jul 6, 8:00 am)30% (Jul 4, 5:30 pm)29.27 "Hg (Jul 5, 4:30 pm)
Average95 °F57%29.37 "Hg
* Reported Jul 2 2:00 pm — Jul 17 2:30 pm, Dera Ghazi Khan. Weather by CustomWeather, © 2019

Note: Actual official high and low records may vary slightly from our data, if they occured in-between our weather recording intervals... More about our weather records

Advertising

Dera Ghazi Khan Weather History for the Previous 24 Hours

Scroll right to see more
 ConditionsComfort  
Time TempWeatherWind HumidityBarometerVisibility
2:30 pm
Wed, Jul 17
97 °FScattered clouds.No wind56%29.50 "Hg3 mi
2:00 pm97 °FScattered clouds.5 mph56%29.50 "Hg3 mi
1:30 pm95 °FScattered clouds.2 mph56%29.53 "Hg3 mi
1:00 pm95 °FScattered clouds.No wind56%29.53 "Hg3 mi
12:30 pm95 °FPassing clouds.No wind60%29.53 "Hg3 mi
12:00 pm95 °FPassing clouds.7 mph60%29.53 "Hg3 mi
11:30 am93 °FPassing clouds.7 mph59%29.53 "Hg2 mi
11:00 am93 °FClear.No wind59%29.53 "Hg2 mi
10:30 am91 °FClear.No wind63%29.53 "Hg2 mi
10:00 am90 °FClear.7 mph67%29.53 "Hg2 mi
9:30 am90 °FClear.5 mph67%29.53 "Hg2 mi
9:00 am88 °FPassing clouds.5 mph70%29.53 "Hg2 mi
8:30 am88 °FPassing clouds.7 mph70%29.53 "Hg2 mi
8:00 am86 °FScattered clouds.7 mph75%29.53 "Hg2 mi
7:30 am84 °FScattered clouds.5 mph79%29.53 "Hg2 mi
7:00 am84 °FScattered clouds.5 mph79%29.50 "Hg2 mi
6:30 am84 °FScattered clouds.5 mph79%29.50 "Hg2 mi
6:00 am84 °FScattered clouds.5 mph79%29.50 "Hg2 mi
5:30 am84 °FScattered clouds.7 mph79%29.50 "Hg2 mi
4:58 am86 °FPassing clouds.7 mph75%29.47 "Hg2 mi
4:00 am86 °FPassing clouds.7 mph75%29.47 "Hg2 mi
3:00 am88 °FPassing clouds.7 mph70%29.47 "Hg2 mi
2:30 am90 °FPartly cloudy.5 mph67%29.47 "Hg2 mi
2:00 am90 °FPartly cloudy.5 mph67%29.47 "Hg2 mi
1:30 am90 °FPartly cloudy.5 mph67%29.47 "Hg2 mi
1:00 am90 °FPartly cloudy.5 mph67%29.47 "Hg2 mi
12:00 am90 °FPassing clouds.No wind63%29.47 "Hg2 mi
11:30 pm
Tue, Jul 16
91 °FPassing clouds.7 mph63%29.50 "Hg2 mi
10:30 pm91 °FPassing clouds.7 mph63%29.50 "Hg2 mi
10:00 pm93 °FPassing clouds.No wind59%29.47 "Hg2 mi
9:30 pm93 °FPassing clouds.No wind59%29.47 "Hg2 mi
8:30 pm95 °FPassing clouds.14 mph56%29.47 "Hg2 mi
8:00 pm97 °FPassing clouds.5 mph53%29.45 "Hg2 mi
7:30 pm97 °FPassing clouds.7 mph56%29.45 "Hg2 mi
7:00 pm97 °FScattered clouds.7 mph56%29.45 "Hg2 mi
6:30 pm97 °FScattered clouds.9 mph56%29.45 "Hg2 mi
6:00 pm97 °FScattered clouds.9 mph56%29.42 "Hg2 mi
5:30 pm97 °FScattered clouds.12 mph56%29.42 "Hg2 mi
5:00 pm97 °FScattered clouds.9 mph56%29.42 "Hg2 mi
4:30 pm99 °FScattered clouds.9 mph50%29.42 "Hg2 mi
4:00 pm99 °FScattered clouds.12 mph50%29.45 "Hg2 mi
3:30 pm99 °FScattered clouds.12 mph47%29.45 "Hg2 mi
3:00 pm99 °FScattered clouds.12 mph47%29.45 "Hg2 mi
Weather by CustomWeather, © 2019

See weather overview